This demonstration page uses our WeatherBlox Daily Observations layout. Learn more.

Left ArrowRight Arrow

Hourly Observations for June 22, 2021

Temp ( °F °C ) Dew Point ( °F °C ) Humidity (%) Winds ( mph kmh ) Pressure ( in mb ) Visibility ( mi km ) Precip ( " mm )
12:56 am 00:56 Clear 60 15.6 52 11.1 75 75 Calm 29.97 1015 10 16 0.00 0.00
1:56 am 01:56 Clear 58 14.4 53 11.7 84 84 SSW 6 9 29.96 1015 10 16 0.00 0.00
2:56 am 02:56 Clear 61 16.1 52 11.1 72 72 SSW 5 7 29.93 1014 10 16 0.00 0.00
3:56 am 03:56 Clear 61 16.1 54 12.2 78 78 SW 9 15 29.91 1013 10 16 0.00 0.00
4:56 am 04:56 Clear 61 16.1 54 12.2 78 78 SSW 10 17 29.89 1012 10 16 0.00 0.00
5:56 am 05:56 Clear 62 16.7 53 11.7 73 73 SSW 13 20 29.88 1012 10 16 0.00 0.00
6:56 am 06:56 Sunny 62 16.7 52 11.1 70 70 SW 7 11 29.88 1012 8 13 0.00 0.00
7:56 am 07:56 Hazy 65 18.3 54 12.2 68 68 SW 13 20 29.88 1012 6 10 0.00 0.00
8:56 am 08:56 Sunny 71 21.7 56 13.3 59 59 SW 16 26 29.86 1011 10 16 0.00 0.00
9:56 am 09:56 Sunny 76 24.4 57 13.9 52 52 SW 18 30 29.85 1011 10 16 0.00 0.00
10:56 am 10:56 Sunny 79 26.1 57 13.9 47 47 SW 16 26 29.83 1010 10 16 0.00 0.00
11:56 am 11:56 Sunny 82 27.8 56 13.3 41 41 SSW 17 28 29.81 1010 9 14 0.00 0.00
12:56 pm 12:56 Sunny 83 28.3 57 13.9 41 41 S 23 37 29.80 1009 10 16 0.00 0.00
1:56 pm 13:56 Sunny 85 29.4 59 15 42 42 SSW 21 33 29.78 1009 10 16 0.00 0.00
2:56 pm 14:56 Sunny 87 30.6 59 15 39 39 S 24 39 29.75 1008 10 16 0.00 0.00
3:56 pm 15:56 Sunny 88 31.1 60 15.6 39 39 SSW 23 37 29.73 1007 10 16 0.00 0.00
4:56 pm 16:56 Sunny 89 31.7 61 16.1 39 39 S 17 28 29.72 1006 10 16 0.00 0.00
5:56 pm 17:56 Sunny 89 31.7 62 16.7 41 41 SSW 16 26 29.69 1005 10 16 0.00 0.00
6:56 pm 18:56 Sunny 89 31.7 62 16.7 41 41 SSW 16 26 29.67 1005 10 16 0.00 0.00
7:56 pm 19:56 Sunny 85 29.4 63 17.2 48 48 S 12 19 29.67 1005 10 16 0.00 0.00
8:56 pm 20:56 Sunny 80 26.7 62 16.7 54 54 S 12 19 29.68 1005 10 16 0.00 0.00
9:56 pm 21:56 Clear 78 25.6 58 14.4 50 50 S 14 22 29.69 1005 10 16 0.00 0.00
10:56 pm 22:56 Clear 77 25 55 12.8 47 47 S 21 33 29.71 1006 10 16 0.00 0.00
11:56 pm 23:56 Clear 75 23.9 54 12.2 48 48 S 16 26 29.72 1006 10 16 0.00 0.00

Powered by AerisWeather